Tracking 30101 objects as of 14-Dec-2024
HD Live streaming from Space Station
objects crossing your sky now

COSMOS 2323 (GLONASS)

Track COSMOS 2323 (GLONASS) now!
COSMOS 2323 (GLONASS) is classified as:


NORAD ID: 23736
Int'l Code: 1995-068C
Perigee: 19,114.9 km
Apogee: 19,158.9 km
Inclination: 65.5 °
Period: 675.7 minutes
Semi major axis: 25507 km
RCS: 3.8825 m2 (large)
Launch date: December 14, 1995
Source: Commonwealth of Independent States (former USSR) (CIS)
Launch site: TYURATAM MISSILE AND SPACE COMPLEX (TTMTR)
Your satellite tracking list
Your tracking list is empty




NASA's NSSDC Master Catalog

Two Line Element Set (TLE):
1 23736U 95068C   24345.41759875  .00000062  00000-0  00000-0 0  9991
2 23736  65.4653 220.5635 0008632 183.5599  25.4673  2.13103533225405
Source of the keplerian elements: AFSPC